Location: San Gennaro Vesuviano
(40.8833°N, 14.5333°E)
Time: 09:49:56
(UTC+00:00)

IGS 5A - Pass Details

Date: 22 April 2021
Orbit: 583 x 588 km, 97.6° (Epoch: 06 May)

Event Time Altitude Azimuth Distance (km) Brightness Sun altitude
Exits shadow 19:54:22 54° 185° (S) 713 3.6 -21.5°
Maximum altitude 19:55:14 78° 258° (WSW) 602 3.4 -21.6°
Drops below altitude 10° 19:59:24 10° 345° (NNW) 1,912 6.8 -22.2°
Sets 20:01:34 0° 347° (NNW) 2,816 7.8 -22.5°
